[[{"header":{"parameterUnit":"m.s-1","parameterCategory":1,"la1":30.2991,"la2":30.254,"lo1":-89.0895,"lo2":-89.0444,"dy":0.0017,"dx":0.0017,"nx":28,"ny":28,"refTime":"2025-05-27T21:00:00:Z","depth":0,"parameterNumber":2,"parameterNumberName":"U-component_of_WINDS"},"data":[0,0,0,0,0,0,0,0,0,0,0,0,0,0,0,0,0,0,0,0,0,0,0,0,0,0,0,0,0,0,0,0,0,0,0,0,0,0,0,0,0,0,0,0,0,0,0,0,0,0,0,0,0,0,0,0,0,0,1.197,1.1975,0,1.2488,1.2493,1.2499,1.269,1.2688,1.2687,1.2685,1.3217,1.3233,1.3248,0,0,0,0,0,0,0,0,0,0,0,0,0,1.1151,1.1165,1.1969,1.1975,1.1982,1.2487,1.2494,1.2501,1.269,1.2688,1.2686,1.2684,1.3212,1.3231,1.325,0,0,0,0,0,0,0,0,0,0,0,0,0,1.1571,1.1169,1.1968,1.2137,1.2158,1.2485,1.2494,1.2503,1.2691,1.2688,1.2686,1.2683,1.3206,1.3229,1.3252,1.345,0,0,1.3325,1.3335,0,0,0,0,0,0,0,0,1.1547,1.1601,1.2106,1.2126,1.215,1.2522,1.2401,1.282,1.2691,1.2488,1.2685,1.2682,1.2988,1.3029,1.3132,1.3475,1.3497,1.3327,1.3341,1.3351,1.3358,0,0,0,0,0,0,0,1.1517,1.158,1.2174,1.2113,1.214,1.219,1.2247,1.2481,1.2746,1.2506,1.2521,1.258,1.2999,1.3109,1.3146,1.3505,1.3326,1.3347,1.3362,1.3371,1.4046,1.405,0,0,0,0,0,0,1.1459,1.1554,1.2158,1.219,1.1836,1.2207,1.227,1.2405,1.2744,1.2794,1.2581,1.2587,1.307,1.3118,1.3166,1.3427,1.3351,1.3373,1.3387,1.4042,1.4047,1.4051,0,0,0,0,0,0,1.1441,1.1511,1.2137,1.1877,1.196,1.2223,1.2373,1.2416,1.2526,1.2801,1.285,1.2644,1.307,1.3132,1.338,1.3448,1.3384,1.3405,1.4038,1.4044,1.4049,1.3945,0,0,0,0,0,0,1.1417,1.1504,1.1579,1.1877,1.1973,1.234,1.2377,1.2428,1.2566,1.2578,1.2873,1.292,1.3073,1.3344,1.3403,1.3479,1.3424,1.4033,1.4041,1.4047,1.3944,1.3946,1.3949,0,0,0,0,0,1.1387,1.1528,1.1582,1.1654,1.2073,1.2343,1.2399,1.2571,1.257,1.2651,1.2829,1.291,1.3429,1.3367,1.3436,1.352,1.403,1.4039,1.4047,1.3942,1.3946,1.3949,0,0,0,0,0,0,1.123,1.1569,1.1634,1.1874,1.2079,1.2375,1.2481,1.2568,1.2777,1.2779,1.2985,1.3051,1.3283,1.3426,1.3351,1.3734,1.3735,1.3758,1.3632,1.3638,1.364,1.3603,1.3443,0,0,0,0,0,1.1224,1.1414,1.17,1.1885,1.1985,1.2215,1.2339,1.2455,1.2675,1.2762,1.2958,1.317,1.3383,1.3517,1.3727,1.3964,1.4036,1.4056,1.4059,1.4059,1.4078,1.4223,1.4238,1.4079,1.4079,1.4079,0,0,1.1212,1.1421,1.1528,1.1859,1.2031,1.2227,1.2286,1.2488,1.2637,1.2793,1.3042,1.3192,1.3443,1.3688,1.3806,1.3814,1.4138,1.407,1.4069,1.4088,1.4233,1.4248,1.4261,1.4085,1.4083,1.4083,0,0,1.1293,1.1467,1.1645,1.1817,1.2077,1.2231,1.2272,1.2558,1.2665,1.2917,1.3041,1.3221,1.3579,1.3756,1.3892,1.4046,1.4131,1.4108,1.4122,1.4261,1.4274,1.4286,1.4349,1.4367,1.4124,1.4124,1.4124,0,1.1246,1.1544,1.1724,1.1923,1.2068,1.222,1.2404,1.2563,1.2877,1.2976,1.298,1.3439,1.3617,1.3911,1.3949,1.4051,1.4111,1.4077,1.4257,1.4271,1.4286,1.4348,1.4369,1.412,1.4121,1.4121,1.4121,0,1.1478,1.1683,1.1795,1.2099,1.2256,1.2445,1.2658,1.2796,1.2899,1.3053,1.3311,1.3532,1.3792,1.387,1.397,1.418,1.4178,1.4216,1.4223,1.4294,1.4356,1.438,1.4114,1.4116,1.4117,1.4118,0,0,1.1473,1.1878,1.1916,1.206,1.2361,1.2524,1.2723,1.2979,1.3097,1.331,1.3487,1.3789,1.383,1.3985,1.4108,1.4228,1.4346,1.4255,1.4264,1.427,1.46,1.4573,1.4596,1.4403,1.4408,1.4412,1.4581,0,1.1599,1.1961,1.2132,1.2421,1.2617,1.2766,1.2941,1.3147,1.3297,1.3487,1.3653,1.3868,1.3901,1.3997,1.4123,1.4305,1.4416,1.4294,1.4575,1.4583,1.4513,1.4628,1.4599,1.4747,1.4606,1.461,1.4613,0,1.1792,1.2009,1.2317,1.2602,1.2691,1.2844,1.3098,1.3275,1.3514,1.3616,1.3791,1.3911,1.4132,1.412,1.443,1.4343,1.4468,1.4576,1.4586,1.4623,1.4605,1.4674,1.4798,1.4822,1.4651,1.4648,1.4645,0,1.1767,1.2134,1.2369,1.2486,1.2822,1.2928,1.3073,1.331,1.3455,1.3676,1.3774,1.4016,1.415,1.4337,1.4522,1.4495,1.4818,1.4819,1.4913,1.4909,1.4977,1.4971,1.5129,1.5047,1.5046,1.5046,1.5045,0,1.1892,1.2076,1.2363,1.2507,1.2721,1.2917,1.3124,1.3281,1.3491,1.3672,1.3814,1.3981,1.4212,1.441,1.4555,1.4795,1.4852,1.4945,1.4982,1.4936,1.4925,1.5024,1.5021,1.5052,1.5051,1.505,1.5049,0,1.19,1.2099,1.2366,1.2664,1.2744,1.2888,1.3146,1.3295,1.3453,1.3681,1.3745,1.3995,1.4236,1.4438,1.4753,1.4852,1.5103,1.5143,1.5022,1.5043,1.5129,1.512,1.536,1.5405,1.5285,1.5286,1.5287,0,1.1969,1.2116,1.2431,1.2563,1.2707,1.2916,1.3067,1.3267,1.3419,1.3706,1.3821,1.4072,1.4285,1.4664,1.4875,1.5119,1.5171,1.5238,1.5209,1.516,1.5181,1.5173,1.5192,1.5241,1.5242,1.5242,1.5242,0,1.2074,1.2167,1.2377,1.2625,1.2801,1.3006,1.3214,1.3314,1.3554,1.3717,1.3966,1.4131,1.4456,1.4707,1.4975,1.5129,1.5229,1.5249,1.5286,1.5242,1.5169,1.5218,1.5035,1.5244,1.5244,1.5244,1.5243,1.5243,1.2121,1.2261,1.2507,1.2739,1.2917,1.3111,1.3267,1.3447,1.3658,1.3939,1.4044,1.4301,1.4544,1.4915,1.5069,1.5276,1.5289,1.5338,1.5353,1.5364,1.5361,1.5131,1.5324,1.5325,1.5325,1.5325,1.5325,0,1.2238,1.2405,1.2617,1.2906,1.3091,1.3166,1.3403,1.3554,1.3778,1.3995,1.4202,1.4493,1.4738,1.497,1.5228,1.5349,1.5402,1.5411,1.5407,1.5443,1.5331,1.5277,1.5365,1.5365,1.5364,1.5364,1.5364,1.5364,1.2322,1.2566,1.2688,1.3024,1.3191,1.3444,1.3574,1.3755,1.3931,1.4248,1.4453,1.4603,1.4829,1.5106,1.5336,1.5399,1.549,1.5489,1.5563,1.5455,1.5449,1.5443,1.5394,1.5505,1.5505,1.566,1.5661,1.5662]},{"header":{"parameterUnit":"m.s-1","parameterCategory":1,"la1":30.2991,"la2":30.254,"lo1":-89.0895,"lo2":-89.0444,"dy":0.0017,"dx":0.0017,"nx":28,"ny":28,"refTime":"2025-05-27T21:00:00:Z","depth":0,"parameterNumber":3,"parameterNumberName":"V-component_of_WINDS"},"data":[0,0,0,0,0,0,0,0,0,0,0,0,0,0,0,0,0,0,0,0,0,0,0,0,0,0,0,0,0,0,0,0,0,0,0,0,0,0,0,0,0,0,0,0,0,0,0,0,0,0,0,0,0,0,0,0,0,0,0.9292,0.9293,0,0.9438,0.9439,0.9441,0.9461,0.946,0.9458,0.9457,0.961,0.9615,0.9621,0,0,0,0,0,0,0,0,0,0,0,0,0,0.9035,0.904,0.9292,0.9293,0.9295,0.9437,0.9439,0.9441,0.9461,0.946,0.9458,0.9456,0.9608,0.9615,0.9621,0,0,0,0,0,0,0,0,0,0,0,0,0,0.916,0.9041,0.9291,0.9322,0.9326,0.9437,0.944,0.9442,0.9462,0.946,0.9458,0.9456,0.9606,0.9614,0.9622,0.9713,0,0,0.9647,0.965,0,0,0,0,0,0,0,0,0.9153,0.917,0.9316,0.932,0.9325,0.9429,0.9405,0.9533,0.9462,0.941,0.9457,0.9455,0.9552,0.9564,0.9596,0.972,0.9727,0.9647,0.9652,0.9656,0.9658,0,0,0,0,0,0,0,0.9144,0.9164,0.935,0.9318,0.9324,0.9331,0.9346,0.9429,0.9491,0.9415,0.9417,0.9433,0.9554,0.9588,0.96,0.9729,0.9647,0.9654,0.9659,0.9662,0.9939,0.9941,0,0,0,0,0,0,0.913,0.9156,0.9345,0.9354,0.9232,0.9337,0.9354,0.9398,0.949,0.9502,0.9435,0.9434,0.9576,0.9591,0.9605,0.9721,0.9656,0.9663,0.9668,0.9936,0.9939,0.9942,0,0,0,0,0,0,0.9124,0.9146,0.9339,0.9256,0.9281,0.9343,0.9392,0.9402,0.9436,0.9505,0.9517,0.9459,0.9575,0.9594,0.9687,0.9726,0.9667,0.9674,0.9933,0.9937,0.9941,0.995,0,0,0,0,0,0,0.9116,0.9144,0.9178,0.9256,0.9285,0.9416,0.9395,0.9406,0.945,0.9449,0.9531,0.9542,0.9574,0.9675,0.9695,0.9736,0.968,0.993,0.9935,0.994,0.9947,0.9954,0.996,0,0,0,0,0,0.9107,0.9175,0.9179,0.9202,0.9328,0.9418,0.9435,0.947,0.9453,0.9488,0.9533,0.954,0.9718,0.9684,0.9707,0.9751,0.9928,0.9934,0.9939,0.9944,0.9953,0.996,0,0,0,0,0,0,0.91,0.9185,0.9192,0.9286,0.9345,0.9422,0.9467,0.9478,0.9543,0.9541,0.9582,0.96,0.9692,0.9731,0.9691,0.9846,0.9822,0.9832,0.9818,0.9827,0.9833,0.9823,0.9687,0,0,0,0,0,0.9109,0.9174,0.9245,0.9322,0.9351,0.9404,0.9445,0.9467,0.953,0.9555,0.9606,0.9668,0.9739,0.9784,0.9853,0.9952,0.9972,0.9994,1.0001,1.0006,1.0015,1.0074,1.0086,0.9961,0.9961,0.9961,0,0,0.9129,0.9184,0.9222,0.9322,0.937,0.9438,0.9425,0.9497,0.9549,0.9566,0.9657,0.9697,0.9769,0.9867,0.9912,0.9902,1.0054,1.0013,1.0017,1.0024,1.0081,1.0093,1.0104,0.9965,0.9964,0.9963,0,0,0.9201,0.9247,0.9318,0.9366,0.944,0.9475,0.9492,0.9568,0.9595,0.9687,0.9703,0.9765,0.9885,0.9937,0.9979,1.0072,1.0082,1.0094,1.0129,1.0186,1.0196,1.0205,1.0242,1.0254,1.0102,1.0102,1.0102,0,0.9217,0.9318,0.9353,0.9425,0.947,0.9489,0.9562,0.9608,0.97,0.9731,0.9718,0.9871,0.992,1.0032,1.0055,1.0087,1.011,1.0085,1.0191,1.0201,1.021,1.0245,1.0259,1.0103,1.0103,1.0103,1.0103,0,0.9336,0.9407,0.9455,0.9544,0.9594,0.9666,0.9714,0.9761,0.9779,0.9816,0.9911,0.9971,1.0054,1.0082,1.0099,1.0197,1.0188,1.0183,1.016,1.0223,1.0257,1.027,1.0105,1.0105,1.0104,1.0104,0,0,0.9407,0.9515,0.9533,0.9575,0.9657,0.9714,0.9788,0.9868,0.9909,0.9972,1.0038,1.0139,1.0136,1.0183,1.0207,1.0257,1.0332,1.0246,1.0249,1.0262,1.0446,1.0452,1.0466,1.0338,1.034,1.0342,1.0441,0,0.9491,0.9623,0.9657,0.9771,0.9839,0.9858,0.9923,0.9983,1.002,1.0084,1.0126,1.0198,1.0186,1.0216,1.0265,1.0312,1.037,1.0305,1.0402,1.0405,1.0385,1.0484,1.0489,1.058,1.0454,1.0457,1.0458,0,0.9606,0.9672,0.9792,0.9869,0.9899,0.9957,1.0035,1.0095,1.0163,1.0187,1.0241,1.0262,1.0342,1.0314,1.0427,1.0383,1.0424,1.0453,1.0458,1.047,1.0437,1.0502,1.0609,1.0623,1.0479,1.0477,1.0476,0,0.9649,0.9768,0.9857,0.9891,0.9982,1.0023,1.0064,1.013,1.0177,1.0245,1.0277,1.0353,1.0396,1.0456,1.0498,1.0472,1.0609,1.0583,1.0634,1.0633,1.0663,1.0661,1.0781,1.0686,1.0685,1.0685,1.0685,0,0.9741,0.9814,0.9878,0.9932,1.0016,1.0056,1.0138,1.0179,1.0239,1.0303,1.0324,1.0385,1.0434,1.0502,1.0535,1.0626,1.0644,1.0668,1.0676,1.0667,1.0665,1.0697,1.0693,1.0689,1.0688,1.0687,1.0687,0,0.9804,0.9849,0.9947,1.0026,1.0048,1.0106,1.0175,1.023,1.0268,1.0349,1.0371,1.0432,1.0513,1.0559,1.0661,1.0684,1.0786,1.079,1.0763,1.0767,1.0816,1.0812,1.0963,1.0986,1.0872,1.0873,1.0874,0,0.986,0.9918,1.0003,1.0048,1.0088,1.0159,1.0208,1.025,1.03,1.0384,1.0429,1.0511,1.0579,1.0709,1.0763,1.0842,1.085,1.0897,1.0862,1.0852,1.0854,1.0851,1.0859,1.0904,1.0905,1.0906,1.0907,0,0.9957,0.9977,1.0045,1.0123,1.018,1.0243,1.0306,1.0341,1.0394,1.0449,1.0532,1.0585,1.069,1.0773,1.0857,1.09,1.0914,1.0917,1.0934,1.0927,1.091,1.0923,1.0782,1.0914,1.0913,1.0913,1.0912,1.0912,1.002,1.0074,1.0143,1.022,1.0271,1.033,1.0386,1.0432,1.0502,1.059,1.0611,1.0699,1.0769,1.0883,1.0929,1.1,1.0991,1.1014,1.1021,1.1027,1.103,1.0896,1.1015,1.1014,1.1014,1.1014,1.1014,0,1.012,1.0166,1.0236,1.0324,1.0385,1.0391,1.0461,1.0513,1.059,1.0654,1.0721,1.0818,1.0899,1.0959,1.1043,1.1088,1.1097,1.1109,1.1107,1.1118,1.1031,1.101,1.1101,1.1101,1.1101,1.1101,1.1101,1.1101,1.018,1.0271,1.03,1.0418,1.0464,1.055,1.0591,1.0646,1.0697,1.0805,1.0872,1.0911,1.0975,1.1063,1.1138,1.1154,1.1185,1.1197,1.1214,1.1132,1.1123,1.1114,1.1095,1.1203,1.1203,1.1296,1.1296,1.1297]}]]